Weather Service Report


531 
ASUS45 KTFX 020919
RWRMT 
MONTANA HOURLY WEATHER ROUNDUP
NATIONAL WEATHER SERVICE GREAT FALLS MT
319 AM MDT THU OCT 2 2014

NOTE: "FAIR" INDICATES FEW OR NO CLOUDS BELOW 12000 FEET WITH NO
SIGNIFICANT WEATHER AND/OR OBSTRUCTIONS TO VISIBILITY.

* THESE STATIONS ARE NOT UNDER NWS QUALITY CONTROL. THEY DO NOT
   REPORT WEATHER SUCH AS PRECIPITATION OR FOG.

MTZ001>007-043-021000-
WEST OF THE DIVIDE
CITY           SKY/WX    TMP DP  RH WIND       PRES   REMARKS
KALISPELL      PTCLDY    45  36  71 SW5       29.98S 
MISSOULA       CLOUDY    45  37  74 VRB3      30.09R 
BUTTE          CLEAR     34  27  76 E3        30.10R 
MULLAN PASS    CLOUDY    36  32  85 VRB5      30.06R WCI  32 
* ESSEX        N/A       44  38  80 N/A        N/A   
* LINCOLN      N/A       43  32  65 SW2G10     N/A   
* LOOKOUT PASS N/A       43  35  73 N3G9       N/A   
* POLSON       N/A       46  35  66 SE2        N/A   
* RONAN APT    MOCLDY    48  37  66 SE5        N/A   
* SEELEY LAKE  N/A       46  32  58 N3G10      N/A   
* THOMP F APT  PTCLDY    34  24  67 S2G11      N/A   
* YAAK HILL    N/A       50  32  50 N1         N/A   
$$

MTZ008-052>055-021000-
SOUTHWEST MONTANA
CITY           SKY/WX    TMP DP  RH WIND       PRES   REMARKS
BOZEMAN        CLOUDY    34  30  85 E5        30.07S WCI  29 
DILLON         PTCLDY    36  28  73 SW13      30.10S WCI  27 
W YELLOWSTONE  MOCLDY    32  30  92 SW9       30.17R WCI  24 
* THREE FORKS  CLOUDY    39  39 100 N/A        N/A   
* BOULDER HILL N/A       41  21  45 S5         N/A   
* MONIDA PASS  N/A       33  24  70 SE6        N/A   WCI  27 
* RAYNOLDS PAS N/A       31  16  54 SE11       N/A   WCI  22 
* WHITEHALL    N/A       45  31  58 W9G15      N/A   
* WISE RIVER   N/A       38  25  60 W7G16      N/A   WCI  33 
$$

MTZ009>010-012-014-046-048-049-054-021000-
EAST SLOPES AND CENTRAL MONTANA
CITY           SKY/WX    TMP DP  RH WIND       PRES   REMARKS
CUT BANK       LGT SNOW  34  32  92 N18       30.00R VSB 3/4  WCI  23 
GREAT FALLS    PTCLDY    41  30  65 SW12      29.96R 
HELENA         MOCLDY    48  30  50 W5        30.03R 
MALMSTROM AFB  PTCLDY    43  32  65 SW14      29.97S 
* CONRAD       PTCLDY    39  36  89 N5         N/A   WCI  35 
* DEARBORN     N/A       51  29  43 S6G16      N/A   
* EAST GLACIER N/A       34  33  96 E23G29     N/A   WCI  22 
* MONARCH      N/A       39  19  45 SW16       N/A   WCI  30 
* PENDROY      N/A       43  26  51 NW11       N/A   
* ROGERS PASS  N/A       40  30  68 SE10       N/A   WCI  34 
* SAINT MARY   N/A       34  32  92 N10G15     N/A   WCI  26 
* SWEET GRASS  N/A       34  34 100 N16        N/A   WCI  24 
* WHITE SULPH  N/A       42  25  51 SW5G11     N/A   
$$

MTZ011-013-016-021-035-040-045-047-050-051-021000-
NORTH CENTRAL MONTANA
CITY           SKY/WX    TMP DP  RH WIND       PRES   REMARKS
HAVRE          MOCLDY    43  36  76 N7        29.94R 
LEWISTOWN      CLEAR     39  28  65 SW12      29.96S WCI  32 
* CHINOOK      MOCLDY    43  36  76 W6        29.94R 
* FORT BENTON  PTCLDY    45  30  56 NW7       29.97R 
* CHESTER      N/A       40  34  79 N13G19     N/A   WCI  32 
* DENTON       N/A       41  28  60 S10        N/A   
* JUDITH GAP   N/A       41  27  58 W12G17     N/A   
* LOMA         N/A       47  31  54 W12G19     N/A   
$$

MTZ017>020-022>027-061-062-021000-
NORTHEAST MONTANA
CITY           SKY/WX    TMP DP  RH WIND       PRES   REMARKS
GLASGOW        PTCLDY    46  36  68 W12       29.83S 
GLENDIVE       MOCLDY    39  36  89 S8        29.90S WCI  33 
JORDAN         CLEAR     41  34  76 W6        29.89S 
SIDNEY         MOCLDY    43  39  86 S7        29.88S 
WOLF POINT     CLOUDY    43  39  86 W3        29.84F 
* BEAVER HILL  N/A       43  37  79 S12        N/A   
* CIRCLE       N/A       43  38  83 N/A        N/A   
* LINDSAY DVD  N/A       45  35  68 SW10       N/A   
* NAVAJO       N/A       45  37  74 W4G9       N/A   
$$

MTZ028>042-056>058-021000-
SOUTHCENTRAL AND SOUTHEAST MONTANA
CITY           SKY/WX    TMP DP  RH WIND       PRES   REMARKS
BAKER          MOCLDY    41  36  82 VRB3      29.94S 
BILLINGS       CLEAR     45  30  56 SW5       29.99S 
LIVINGSTON     PTCLDY    45  27  49 W18G23    30.03R 
MILES CITY     MOCLDY    37  32  82 S7        29.92F WCI  32 
* LAUREL APT   PTCLDY    37  27  67 N/A        N/A   
* ROUNDUP APT  CLEAR     46  27  48 W6         N/A   
* HYSHAM       N/A       44  29  56 W4G10      N/A   
* LAME DEER    N/A       44  31  60 W8         N/A   
* REED POINT   N/A       47  25  42 W6         N/A   
* ROSCOE HILL  N/A       46  12  25 SW10G24    N/A   
$$

REGIONAL REPORTS...DAKOTAS
CITY           SKY/WX    TMP DP  RH WIND       PRES   REMARKS
WILLISTON      MOCLDY    43  39  86 SW6       29.85S 
DICKINSON      CLEAR     41  37  86 W7        29.89S 
BEACH          N/A       39  39 100 SW8       29.91S WCI  33 
CROSBY         MOCLDY    43  43 100 S9        29.81F 
TIOGA          CLEAR     37  37 100 W3        29.86S 
WATFORD CITY   FAIR      39  39 100 SW6       29.84F WCI  35 
BISMARCK       MOCLDY    45  43  93 W3        29.88F 
GRAND FORKS    PTCLDY    48  45  89 SW6       29.79S 
FARGO          PTCLDY    48  46  93 W9        29.82S 
BUFFALO SD     CLEAR     37  34  89 W7        29.89S WCI  32 
RAPID CITY     CLEAR     39  36  89 NW5       29.99S WCI  35 
$$

REGIONAL REPORTS...WYOMING/IDAHO/WASHINGTON
CITY           SKY/WX    TMP DP  RH WIND       PRES   REMARKS
GILLETTE       CLEAR     39  36  89 SW8       30.01F WCI  33 
SHERIDAN       CLEAR     32  28  85 SW5       29.99S WCI  27 
CODY           PTCLDY    48  25  41 W16G23    30.03R 
YELLOWSTONE LA PTCLDY    28  27  96 CALM      30.19S 
SALMON         CLEAR     32  30  92 CALM      30.16R 
MULLAN PASS    CLOUDY    36  32  85 VRB5      30.06S WCI  32 
SAND POINT     PTCLDY    43  37  79 W5        30.04R 
SPOKANE        CLOUDY    50  34  54 W13       30.06R 
$$

REGIONAL REPORTS...ALBERTA
CITY           SKY/WX    TMP DP  RH WIND       PRES   REMARKS
CALGARY        CLOUDY    36  28  73 N14G20    30.04R WCI  27 
LETHBRIDGE     LGT SNOW  32  32 100 W15       30.06R VSB 1 1/4 WCI  22 
MEDICINE HAT   LGT RAIN N/A N/A N/A N/A        N/A   
EDMONTON       MOCLDY    32  23  69 NW20G30   30.04R WCI  20 
WATERTON GATE  N/A       32  30  92 CALM       N/A   
CARDSTON       N/A       32 N/A N/A NW8        N/A   WCI  25 
MILK RIVER     N/A       32  32 100 N16        N/A   WCI  21 
$$

REGIONAL REPORTS...SASKATCHEWAN
CITY           SKY/WX    TMP DP  RH WIND       PRES   REMARKS
SWIFT CURRENT  CLOUDY    37  36  96 N15G21    29.83R WCI  28 
MOOSE JAW      LGT RAIN  48  41  77 NW7       29.78R 
REGINA         MOCLDY    45  39  80 W9        29.77R 
VAL MARIE      N/A       41  37  86 N23G30     N/A   
ASSINIBOIA     N/A       41  36  82 S5         N/A   
CORONACH       N/A       41  36  82 S8         N/A   

$$


Return to Home page


Western Regional Climate Center, wrcc@dri.edu